Back to catalog

STARLINK-4325

AliveCommunicationsSSO
NORAD 53068·PAYLOAD·🇺🇸 United States

Launched Jul 11, 2022 from Vandenberg Space Force Base

Loading…

Next Passes (next 24 hours)

TLE

FreshSource: CelesTrak SupGP

Epoch: Sep 14, 2026, 14:20 UTC

1 53068C 22077AB  26257.59770833 -.00056676  00000+0 -17597-2 0  2573
2 53068  97.2852  73.3514 0001545  91.0893 267.3278 15.33461741    16

Track STARLINK-4325 in real time with AllMySat

Download on the App Store